Augusta, ME

8:10 AM EST on February 23, 2017 (GMT -0500)
Augusta State

Weather History for KAUG - February, 2013

Change the Weather History Date:

Friday, February 22, 2013

  Actual Average Record
Temperature  
Mean Temperature 30 °F 25 °F  
Max Temperature 36 °F 34 °F 53 °F (1991)
Min Temperature 25 °F 16 °F -10 °F (1968)
Degree Days  
Heating Degree Days 34 40  
Month to date heating degree days 938  
Since 1 July heating degree days 5109  
Cooling Degree Days 0 0  
Month to date cooling degree days 0  
Year to date cooling degree days 0  
Moisture  
Dew Point 18 °F    
Average Humidity 63    
Maximum Humidity 75    
Minimum Humidity 48    
Precipitation  
Precipitation 0.00 in 0.09 in 1.47 in (1996)
Month to date precipitation 1.86  
Year to date precipitation 4.47  
Sea Level Pressure  
Sea Level Pressure 30.33 in    
Wind  
Wind Speed 11 mph (North)    
Max Wind Speed 17 mph    
Max Gust Speed 24 mph    
Visibility 10 miles    
Events      
T = Trace of Precipitation, MM = Missing Value Source: NWS Daily Summary

Daily Weather History Graph

Daily Weather History Graph

Search for Another Location

Airport or City:

Trip Planner

Search our weather history database for the weather conditions in past years. The results will help you decide how hot, cold, wet, or windy it might be!

Date:

Astronomy

Feb. 22, 2013 Rise Set
Actual Time 6:27 AM EST 5:18 PM EST
Civil Twilight 5:58 AM EST 5:47 PM EST
Nautical Twilight 5:24 AM EST 6:21 PM EST
Astronomical Twilight 4:51 AM EST 6:54 PM EST
Moon 2:22 PM EST (2/22) 4:15 AM EST (2/22)
Length of Visible Light 11h 49m
Length of Day
10h 50m
Waxing Gibbous, 90% of the Moon is Illuminated
Feb 22
Waxing Gibbous
Feb 25
Full
Mar 4
Last Quarter
Mar 11
New
Mar 19
First Quarter

Hourly Weather History & Observations

Time (EST) Temp. Windchill Dew Point Humidity Pressure Visibility Wind Dir Wind Speed Gust Speed Precip Events Conditions
12:53 AM 30.0 °F 19.1 °F 21.0 °F 69% 30.18 in 10.0 mi NNW 15.0 mph - N/A   Overcast
1:53 AM 28.9 °F 16.9 °F 19.9 °F 69% 30.22 in 10.0 mi NNW 17.3 mph 23.0 mph N/A   Mostly Cloudy
2:53 AM 28.0 °F 15.7 °F 19.9 °F 72% 30.23 in 10.0 mi North 17.3 mph - N/A   Clear
3:53 AM 28.0 °F 15.7 °F 19.0 °F 69% 30.26 in 10.0 mi North 17.3 mph 24.2 mph N/A   Clear
4:53 AM 27.0 °F 17.3 °F 18.0 °F 69% 30.27 in 10.0 mi North 10.4 mph - N/A   Clear
5:53 AM 26.1 °F 16.8 °F 17.1 °F 69% 30.30 in 10.0 mi North 9.2 mph - N/A   Clear
6:53 AM 25.0 °F 15.5 °F 17.1 °F 72% 30.32 in 10.0 mi North 9.2 mph - N/A   Clear
7:53 AM 27.0 °F 17.3 °F 18.0 °F 69% 30.36 in 10.0 mi North 10.4 mph - N/A   Clear
8:53 AM 30.0 °F 20.5 °F 19.0 °F 64% 30.39 in 10.0 mi NNW 11.5 mph - N/A   Clear
9:53 AM 32.0 °F 22.5 °F 18.0 °F 56% 30.38 in 10.0 mi North 12.7 mph 19.6 mph N/A   Clear
10:53 AM 32.0 °F 23.6 °F 17.1 °F 54% 30.38 in 10.0 mi NNE 10.4 mph - N/A   Clear
11:53 AM 34.0 °F 25.5 °F 19.0 °F 54% 30.36 in 10.0 mi NNW 11.5 mph - N/A   Clear
12:53 PM 36.0 °F 29.6 °F 18.0 °F 48% 30.35 in 10.0 mi NNE 8.1 mph - N/A   Clear
1:53 PM 35.1 °F 30.1 °F 18.0 °F 50% 30.34 in 10.0 mi NNW 5.8 mph - N/A   Clear
2:53 PM 35.1 °F 27.9 °F 19.0 °F 52% 30.34 in 10.0 mi NNW 9.2 mph - N/A   Clear
3:53 PM 34.0 °F 28.8 °F 19.0 °F 54% 30.34 in 10.0 mi North 5.8 mph - N/A   Clear
4:53 PM 32.0 °F 28.7 °F 19.0 °F 59% 30.35 in 10.0 mi North 3.5 mph - N/A   Clear
5:53 PM 30.9 °F 27.5 °F 17.1 °F 57% 30.35 in 10.0 mi NNE 3.5 mph - N/A   Clear
6:53 PM 30.0 °F 25.2 °F 17.1 °F 59% 30.35 in 10.0 mi NE 4.6 mph - N/A   Clear
7:53 PM 28.9 °F 22.8 °F 18.0 °F 64% 30.36 in 10.0 mi NNE 5.8 mph - N/A   Clear
8:53 PM 28.0 °F 22.8 °F 18.0 °F 66% 30.37 in 10.0 mi NNE 4.6 mph - N/A   Clear
9:53 PM 27.0 °F 20.5 °F 19.0 °F 72% 30.36 in 10.0 mi NE 5.8 mph - N/A   Clear
10:53 PM 26.1 °F 20.5 °F 19.0 °F 75% 30.35 in 10.0 mi NE 4.6 mph - N/A   Clear
11:53 PM 26.1 °F - 19.0 °F 75% 30.36 in 10.0 mi Calm Calm - N/A   Clear